Probability
0 0 0 0 0 0 0 0 0 0 0 0 0 0 0 0 0 0 0 0 0 0 0 0 0 0 0 0 0 0 0 0 0 0 0 0 0 0 0 0 0 0 0 0
0 0 0 0 0 0 0 0 0 0 0 0 0 0 0 0 0 0 0 0 0 0 0 0 0 0 0 0 0 0 0 0 0 0 0 0 0 0 0 0 0 0 0 0
0 0 0 0 0 0 0 0 0 0 0 0 0 0 0 0 0 0 0 0 0 0 0 0 0 0 0 0 0 0 0 0 0 0 0 0 0 0 0 0 0 0 0 0
0 0 0 0 0 0 0 0 0 0 0 0 0 0 0 0 0 0 0 0 0 0 0 0 0 0 0 0 0 0 0 0 0 0 0 0 0 0 0 0 0 0 0 0
0 0 0 0 0 0 0 0 0 0 0 0 0 0 0 0 0 0 0 0 0 0 0 0 0 0 0 0 0 0 0 0 0 0 0 0 0 0 0 0 0 0 0 0
0 0 0 0 0 0 0 0 0 0 0 0 0 0 0 0 0 0 0 0 0 0 0 0 0 0 0 0 0 0 0 0 0 0 0 0 0 0 0 0 0 0 0 0
0 0 0 0 0 0 0 0 0 0 0 0 0 0 0 0 0 0 0 0 0 0 0 0 0 0 0 0 0 0 0 0 0 0 0 0 0 0 0 0 0 0 0 0
0 0 0 0 0 0 0 0 0 0 0 0 0 0 0 0 0 0 0 0 0 0 0 0 0 0 0 0 0 0 0 0 0 0 0 0 0 0 0 0 0 0 0 0
0 0 0 0 0 0 0 0 0 0 0 0 0 0 0 0 0 0 0 0 0 0 0 0 0 0 0 0 0 0 0 0 0 0 0 0 0 0 0 0 0 0 0 0
0 0 0 0 0 0 0 0 0 0 0 0 0 0 0 0 0 0 0 0 0 0 0 0 0 0 0 0 0 0 0 0 0 0 0 0 0 0 0 0 0 0 0 0
0 0 0 0 0 0 0 0 0 0 0 0 0 0 0 0 0 0 0 0 0 0 0 0 0 0 0 0 0 0 0 0 0 0 0 0 0 0 0 0 0 0 0 0
0 0 0 0 0 0 0 0 0 0 0 0 0 0 0 0 0 0 0 0 0 0 0 0 0 0 0 0 0 0 0 0 0 0 0 0 0 0 0 0 0 0 0 0
0 0 0 0 0 0 0 0 0 0 0 0 0 0 0 0 0 0 0 0 0 0 0 0 0 0 0 0 0 0 0 0 0 0 0 0 0 0 0 0 0 0 0 0
0 0 0 0 0 0 0 0 0 0 0 0 0 0 0 0 0 0 0 0 0 0 0 0 0 0 0 0 0 0 0 0 0 0 0 0 0 0 0 0 0 0 0 0
0 0 0 0 0 0 0 0 0 0 0 0 0 0 0 0 0 0 0 0 0 0 0 0 0 0 0 0 0 0 0 0 0 0 0 0 0 0 0 0 0 0 0 0
0 0 0 0 0 0 0 0 0 0 0 0 0 0 0 0 0 0 0 0 0 0 0 0 0 0 0 0 0 0 0 0 0 0 0 0 0 0 0 0 0 0 0 0
0 0 0 0 0 0 0 0 0 0 0 0 0 0 0 0 0 0 0 0 0 0 0 0 0 0 0 0 0 0 0 0 0 0 0 0 0 0 0 0 0 0 0 0
0 0 0 0 0 0 0 0 0 0 0 0 0 0 0 0 0 0 0 0 0 0 0 0 0 0 0 0 0 0 0 0 0 0 0 0 0 0 0 0 0 0 0 0
0 0 0 0 0 0 0 0 0 0 0 0 0 0 0 0 0 0 0 0 0 0 0 0 0 0 0 0 0 0 0 0 0 0 0 0 0 0 0 0 0 0 0 0
0 0 0 0 0 0 0 0 0 0 0 0 0 0 0 0 0 0 0 0 0 0 0 0 0 0 0 0 0 0 0 0 0 0 0 0 0 0 0 0 0 0 0 0
0 0 0 0 0 0 0 0 0 0 0 0 0 0 0 0 0 0 0 0 0 0 0 0 0 0 0 0 0 0 0 0 0 0 0 0 0 0 0 0 0 0 0 0
0 0 0 0 0 0 0 0 0 0 0 0 0 0 0 0 0 0 0 0 0 0 0 0 0 0 0 0 0 0 0 0 0 0 0 0 0 0 0 0 0 0 0 0
0 0 0 0 0 0 0 0 0 0 0 0 0 0 0 0 0 0 0 0 0 0 0 0 0 0 0 0 0 0 0 0 0 0 0 0 0 0 0 0 0 0 0 0
0 0 0 0 0 0 0 0 0 0 0 0 0 0 0 0 0 0 0 0 0 0 0 0 0 0 0 0 0 0 0 0 0 0 0 0 0 0 0 0 0 0 0 0
0 0 0 0 0 0 0 0 0 0 0 0 0 0 0 0 0 0 0 0 0 0 0 0 0 0 0 0 0 0 0 0 0 0 0 0 0 0 0 0 0 0 0 0
0 0 0 0 0 0 0 0 0 0 0 0 0 0 0 0 0 0 0 0 0 0 0 0 0 0 0 0 0 0 0 0 0 0 0 0 0 0 0 0 0 0 0 0
Wind_Speed
3 3 3 7 7 3 1 2 5 6 3 3 5 7 8 5 2 3 4 6 7 7 7 8 9 9 6 4 1 2 4 5 5 3 3 3 4 4 4 5 7 8 8 9
3 4 7 3 3 2 2 3 5 5 2 2 5 6 4 2 1 1 2 5 6 7 10 11 11 10 9 6 4 1 2 4 5 4 3 3 2 3 4 5 7 8 9 9
6 5 1 3 3 3 3 4 4 3 4 2 4 4 2 2 2 2 3 3 5 6 7 8 9 9 9 8 6 3 1 2 3 4 3 2 1 1 1 3 4 7 8 9
6 5 2 3 4 5 5 4 4 1 2 4 3 3 3 1 1 0 2 3 4 5 6 6 7 8 8 7 6 5 4 2 2 4 3 4 4 4 5 3 4 5 7 10
5 3 3 4 5 7 5 1 1 1 1 2 2 2 7 1 4 5 2 1 2 3 5 6 6 5 6 6 6 5 5 4 2 2 3 4 4 5 4 3 5 5 5 7
5 3 3 4 1 3 4 5 4 4 4 2 2 3 6 4 6 5 4 3 1 2 4 4 4 5 5 6 6 5 6 5 3 1 2 3 5 6 6 6 6 5 4 5
3 2 1 3 4 2 3 4 4 4 3 4 1 3 9 4 4 6 8 6 3 1 2 3 4 5 6 7 6 6 6 5 3 2 1 3 4 5 6 6 5 5 4 4
2 4 3 3 5 5 4 5 5 3 3 5 2 6 8 3 3 3 5 5 3 2 0 1 2 3 4 5 5 5 5 4 4 4 3 3 3 3 4 5 5 5 5 6
6 4 1 1 1 7 5 3 4 5 1 3 6 7 8 1 3 4 5 4 4 2 1 1 2 3 3 4 4 4 5 5 5 5 5 4 4 3 5 5 4 5 5 6
8 3 1 0 3 3 3 7 5 4 2 4 7 5 5 4 3 3 4 5 4 2 0 1 2 3 3 3 4 4 4 4 4 5 4 4 5 5 5 5 6 6 7 6
5 4 1 1 5 6 4 3 4 4 4 4 4 8 6 6 6 7 6 5 3 2 1 1 2 2 3 4 4 4 5 5 5 5 5 6 6 5 5 5 6 7 7 8
4 5 2 4 1 2 5 6 7 5 4 4 3 10 3 3 4 5 4 3 2 2 2 1 1 2 3 4 5 5 5 5 5 5 5 6 6 6 6 7 7 7 8 8
6 6 2 3 2 0 2 4 4 5 5 5 6 9 2 1 2 3 4 3 3 3 2 1 2 3 4 4 5 5 5 5 5 5 6 6 7 7 7 8 8 8 8 9
6 5 6 7 6 6 4 5 6 6 5 6 10 9 4 4 3 3 4 4 4 3 1 1 2 3 4 4 4 5 5 5 5 5 6 7 8 8 8 9 9 9 9 9
5 4 5 5 2 3 5 6 8 10 10 11 10 10 10 8 7 6 5 4 4 2 0 1 2 3 4 4 5 5 5 6 5 6 7 8 8 8 8 9 9 9 9 10
4 4 3 2 1 2 5 10 11 11 9 9 8 10 5 3 4 5 5 5 4 2 2 3 3 4 4 4 5 6 6 7 6 7 8 8 8 9 9 10 10 10 11 11
5 7 4 3 1 3 9 11 10 7 7 8 9 8 3 3 5 6 6 5 4 3 3 4 4 4 4 5 5 6 7 7 7 8 9 9 9 10 10 11 11 12 12 11
8 7 4 2 2 8 9 1 5 5 5 7 5 3 5 5 3 2 4 5 4 3 3 4 4 4 4 4 5 6 7 7 8 9 9 10 9 11 11 11 12 12 11 11
4 7 5 4 4 9 9 4 6 6 6 5 6 5 4 3 3 3 2 3 3 2 3 3 4 4 4 6 6 7 8 8 8 9 10 10 10 11 12 13 13 12 12 13
4 4 6 5 4 8 8 2 4 4 4 4 6 7 5 4 1 3 1 2 2 2 2 3 4 4 5 7 6 7 9 9 10 10 10 10 10 11 13 14 14 12 11 13
4 3 5 6 6 11 7 3 4 3 7 5 6 6 6 6 5 3 1 1 2 2 3 4 5 5 7 7 6 8 9 10 11 10 10 10 10 11 13 13 12 12 13 13
9 8 7 6 6 12 3 6 7 6 3 5 5 5 5 5 3 1 2 2 3 4 4 4 5 7 8 7 7 9 11 11 10 10 11 11 11 10 11 12 13 12 12 14
7 8 7 10 9 3 2 4 3 5 5 5 4 4 3 3 2 2 2 3 4 5 5 5 6 8 9 8 7 10 12 11 11 11 11 11 12 10 9 11 13 12 10 11
4 2 4 4 6 4 2 2 2 3 4 4 3 2 2 2 2 2 3 4 4 5 5 5 6 8 10 9 9 10 11 11 11 12 12 11 12 12 10 8 9 10 11 11
4 6 4 5 4 1 2 4 4 3 3 3 2 2 2 2 2 3 3 5 5 6 5 5 7 9 11 11 11 10 10 10 11 12 12 11 10 11 12 10 8 12 10 13
5 7 7 7 5 6 5 4 5 4 3 2 2 1 1 2 3 3 5 5 6 6 6 7 9 10 11 11 12 11 9 9 10 11 11 9 9 10 10 11 12 16 19 25
Wind_Direction
42 74 221 221 204 202 204 234 266 267 290 313 272 284 300 318 53 57 29 20 20 14 358 14 23 27 36 45 82 188 189 182 157 151 171 197 227 224 227 226 223 215 214 209
32 261 238 206 177 186 206 258 273 288 320 317 304 300 306 19 63 63 45 32 23 15 14 16 21 27 30 29 25 37 193 183 178 169 157 173 186 212 220 221 225 221 220 216
206 239 174 155 176 188 223 217 241 271 334 17 338 336 14 37 52 49 37 33 32 30 22 14 17 20 23 23 12 22 62 172 180 164 132 108 84 353 291 245 239 231 225 224
234 261 211 198 210 178 255 237 208 225 353 310 16 303 264 253 295 348 22 30 35 29 32 29 23 19 18 12 13 31 50 79 127 152 161 183 208 237 240 231 237 238 225 227
247 227 190 205 224 180 211 85 115 140 154 317 330 210 278 241 222 227 215 87 50 43 46 38 27 22 21 16 23 32 51 59 80 139 179 198 233 248 265 265 263 258 243 235
244 254 213 204 112 143 125 84 64 60 78 299 229 177 273 222 211 206 199 192 127 74 52 38 29 30 25 21 25 29 43 44 48 100 181 212 242 262 279 279 276 272 261 248
266 245 226 138 115 69 109 89 13 350 8 263 229 205 252 248 231 204 188 188 179 138 67 32 28 26 19 15 13 15 26 22 17 18 298 250 251 259 264 274 277 281 280 268
225 270 221 187 177 170 170 142 159 232 258 289 294 236 254 286 289 215 164 159 166 175 164 26 31 28 10 5 5 4 6 356 352 351 328 300 275 263 264 267 267 269 267 268
187 241 55 97 139 137 135 159 153 131 176 275 284 289 302 55 55 104 129 147 184 203 221 21 22 20 4 354 350 348 346 341 340 340 334 327 318 296 287 287 276 269 267 272
159 184 168 58 96 32 140 141 108 126 185 276 294 279 256 231 196 172 174 192 210 209 202 30 13 1 351 342 334 343 345 333 329 336 334 326 323 315 303 298 294 288 284 279
150 154 187 150 193 186 130 133 122 121 159 176 273 275 230 214 200 194 204 207 204 197 175 46 357 344 340 340 344 345 344 341 337 335 331 329 322 317 311 298 290 288 287 287
148 126 207 247 238 177 175 174 152 162 212 186 205 268 280 222 202 185 195 192 165 142 120 75 1 346 348 346 344 345 342 338 327 323 323 317 311 311 307 299 293 292 289 285
138 121 88 345 348 25 206 186 174 137 131 166 188 259 300 98 127 160 166 156 130 116 98 55 9 351 342 338 337 338 336 329 322 323 320 315 311 309 303 297 294 293 290 289
119 134 172 203 218 189 201 194 170 151 176 210 221 242 255 238 215 191 168 154 140 130 105 29 344 331 327 327 327 325 321 317 316 316 312 307 303 299 295 292 291 290 288 288
118 177 220 237 217 186 216 212 195 201 205 216 233 229 238 232 218 198 179 162 152 153 328 320 315 311 317 322 320 317 312 312 313 311 306 298 296 294 293 292 290 289 286 285
118 162 173 264 184 221 257 244 227 229 229 237 259 266 244 217 152 158 172 172 180 207 268 298 307 311 312 311 308 309 307 306 307 303 297 295 296 297 296 295 294 292 290 287
145 137 146 246 304 353 270 239 217 214 210 200 227 242 168 147 163 179 190 192 196 228 273 290 295 293 294 293 294 296 294 299 301 297 295 295 295 296 295 296 297 294 292 288
146 143 151 173 134 237 244 199 180 197 226 211 211 187 164 168 184 211 193 186 207 247 274 285 287 288 288 286 290 289 291 295 295 294 293 293 294 295 296 296 294 293 290 290
146 139 135 153 221 273 287 241 182 188 248 205 176 166 152 107 41 324 215 181 199 233 255 261 265 271 281 287 288 294 296 296 295 294 293 293 294 296 298 298 297 296 296 295
72 111 131 152 195 244 250 191 160 120 258 203 161 161 155 125 98 268 229 198 254 277 273 273 282 285 286 285 291 295 294 296 294 292 292 293 292 293 296 297 298 297 295 295
130 147 174 184 219 258 251 180 131 184 246 170 162 166 165 181 201 221 300 292 285 293 289 289 291 285 280 285 293 290 291 289 287 289 292 293 290 289 292 294 294 296 297 296
175 176 189 167 201 249 205 145 183 208 135 140 156 171 185 211 244 282 302 302 312 309 301 297 290 285 286 287 287 287 288 287 290 293 294 295 293 291 297 296 298 297 296 298
204 193 186 193 211 256 187 194 186 142 141 158 167 183 185 209 249 290 302 303 298 290 285 281 278 285 289 285 278 283 289 294 297 298 297 297 297 292 289 291 297 300 298 297
234 167 169 237 260 244 216 154 141 140 142 153 153 156 161 198 244 276 283 284 286 283 282 281 287 288 291 290 284 278 287 294 296 297 299 300 301 301 297 288 289 294 298 298
208 165 189 244 263 200 224 198 166 135 117 112 103 122 165 196 241 254 266 275 275 279 279 278 279 283 287 291 289 285 286 292 294 295 297 299 297 298 301 296 289 294 286 289
190 180 182 220 217 190 216 198 168 154 156 155 154 170 193 199 233 257 263 266 270 275 278 283 283 282 287 290 290 288 285 284 288 296 298 298 299 299 299 302 301 296 298 301